Teterboro, NJ

6:11 AM EST on December 03, 2016 (GMT -0500)
Teterboro

Weather History for KTEB - September, 2013

Change the Weather History Date:

Tuesday, September 24, 2013

  Actual Average Record
Temperature  
Mean Temperature 60 °F -  
Max Temperature 77 °F 72 °F 88 °F (2010)
Min Temperature 46 °F 52 °F 42 °F (1998)
Degree Days  
Heating Degree Days 4    
Growing Degree Days 10 (Base 50)    
Moisture  
Dew Point 41 °F    
Average Humidity 53    
Maximum Humidity 79    
Minimum Humidity 27    
Precipitation  
Precipitation 0.00 in - - ()
Sea Level Pressure  
Sea Level Pressure 29.97 in    
Wind  
Wind Speed 4 mph (NW)    
Max Wind Speed 13 mph    
Max Gust Speed -    
Visibility 10 miles    
Events      
Averages and records for this station are not official NWS values.
T = Trace of Precipitation, MM = Missing Value Source: NWS Daily Summary

Daily Weather History Graph

Daily Weather History Graph

Search for Another Location

Airport or City:

Trip Planner

Search our weather history database for the weather conditions in past years. The results will help you decide how hot, cold, wet, or windy it might be!

Date:

Astronomy

Sep. 24, 2013 Rise Set
Actual Time 6:45 AM EDT 6:49 PM EDT
Civil Twilight 6:18 AM EDT 7:16 PM EDT
Nautical Twilight 5:46 AM EDT 7:48 PM EDT
Astronomical Twilight 5:14 AM EDT 8:21 PM EDT
Moon 10:03 PM EDT (9/24) 12:00 PM EDT (9/24)
Length of Visible Light 12h 58m
Length of Day
12h 03m
Waning Gibbous, 73% of the Moon is Illuminated
Sep 24
Waning Gibbous
Sep 26
Last Quarter
Oct 4
New
Oct 11
First Quarter
Oct 18
Full

Hourly Weather History & Observations

Time (EDT) Temp. Dew Point Humidity Pressure Visibility Wind Dir Wind Speed Gust Speed Precip Events Conditions
12:51 AM 53.1 °F 41.0 °F 64% 30.05 in 10.0 mi North 3.5 mph - N/A   Clear
1:51 AM 52.0 °F 41.0 °F 66% 30.06 in 10.0 mi North 3.5 mph - N/A   Clear
2:51 AM 48.9 °F 41.0 °F 74% 30.05 in 10.0 mi NNW 3.5 mph - N/A   Clear
3:51 AM 48.9 °F 41.0 °F 74% 30.05 in 10.0 mi Calm Calm - N/A   Clear
4:51 AM 46.9 °F 39.9 °F 77% 30.05 in 10.0 mi Calm Calm - N/A   Clear
5:51 AM 46.0 °F 39.9 °F 79% 30.06 in 10.0 mi Calm Calm - N/A   Clear
6:51 AM 46.9 °F 39.9 °F 77% 30.05 in 10.0 mi Calm Calm - N/A   Clear
7:51 AM 50.0 °F 41.0 °F 71% 30.05 in 10.0 mi Calm Calm - N/A   Clear
8:51 AM 53.1 °F 41.0 °F 64% 30.04 in 10.0 mi NW 8.1 mph - N/A   Clear
9:51 AM 57.0 °F 41.0 °F 55% 30.02 in 10.0 mi NW 5.8 mph - N/A   Clear
10:51 AM 60.1 °F 41.0 °F 49% 30.00 in 10.0 mi WNW 5.8 mph - N/A   Clear
11:51 AM 64.0 °F 42.1 °F 45% 29.98 in 10.0 mi Variable 5.8 mph - 0.00 in   Clear
12:51 PM 69.1 °F 42.1 °F 38% 29.95 in 10.0 mi West 9.2 mph - N/A   Clear
1:51 PM 72.0 °F 39.9 °F 31% 29.91 in 10.0 mi NW 9.2 mph - N/A   Clear
2:51 PM 75.0 °F 41.0 °F 29% 29.89 in 10.0 mi NW 8.1 mph - N/A   Clear
3:51 PM 75.9 °F 39.9 °F 27% 29.88 in 10.0 mi NW 9.2 mph - 0.00 in   Clear
4:51 PM 75.0 °F 39.0 °F 27% 29.87 in 10.0 mi NW 12.7 mph - N/A   Clear
5:51 PM 73.9 °F 39.9 °F 29% 29.87 in 10.0 mi NNW 9.2 mph - N/A   Clear
6:51 PM 69.1 °F 42.1 °F 38% 29.88 in 10.0 mi WNW 6.9 mph - N/A   Clear
7:51 PM 66.9 °F 42.1 °F 40% 29.88 in 10.0 mi WNW 3.5 mph - N/A   Clear
8:51 PM 64.0 °F 42.1 °F 45% 29.89 in 10.0 mi Calm Calm - N/A   Clear
9:51 PM 61.0 °F 45.0 °F 56% 29.92 in 10.0 mi Calm Calm - N/A   Clear
10:51 PM 60.1 °F 44.1 °F 55% 29.94 in 10.0 mi Calm Calm - N/A   Clear
11:51 PM 60.1 °F 43.0 °F 53% 29.94 in 10.0 mi North 4.6 mph - N/A   Clear